Flag for Norway Weather past 2 weeks in Sandnessjøen, Norway

Now
41 °F

Quite cool.


Feels Like: 39 °F
Forecast: 42 / 45 °F
Wind: 3 mph from South

Location: Mosjoen Kjaerstad


UV Index: 0 (Low)

Visibility: N/A


Pressure: 29.98 "Hg

Humidity: 61%

Dew point: 29 °F

Location of SandnessjøenLocation

Historic Weather in Sandnessjøen

°F

Sandnessjøen temperature yesterday

Maximum temperature yesterday: 43 °F (at 2:00 PM)
Minimum temperature yesterday: 38 °F (at 7:00 AM)
Average temperature yesterday: 40 °F

Past Weeks' High & Low Weather Summary

 TemperatureHumidityPressure
High47 °F (Apr 7, 3:00 PM)97% (Apr 7, 6:00 AM)30.17 "Hg (Apr 7, 6:00 AM)
Low27 °F (Apr 5, 12:00 AM)38% (Apr 9, 6:00 PM)28.97 "Hg (Apr 13, 9:00 AM)
Average39 °F77%29.70 "Hg
* Reported Apr 3 10:00 PM — Apr 18 10:00 PM, Sandnessjøen, Weather by CustomWeather, © 2014

Note: Actual official high and low records may vary slightly from our data, if they occured in-between our weather recording intervals... More about our weather records

Advertising

Historic Weather Conditions — Data for Previous 24 hours

 ConditionsComfort  
Time TempWeatherWind HumidityBarometerVisibility
10:00 PM
Apr 18
41 °FQuite cool.3 mph61%29.98 "HgN/A
9:00 PM42 °FQuite cool.5 mph62%29.98 "HgN/A
8:00 PM42 °FQuite cool.6 mph58%29.98 "HgN/A
7:00 PM42 °FQuite cool.6 mph55%29.99 "HgN/A
6:00 PM43 °FQuite cool.6 mph54%29.99 "HgN/A
5:00 PM44 °FQuite cool.6 mph48%29.99 "HgN/A
4:00 PM44 °FQuite cool.8 mph47%29.99 "HgN/A
3:00 PM42 °FQuite cool.3 mph62%29.99 "HgN/A
2:00 PM42 °FQuite cool.3 mph49%29.98 "HgN/A
1:00 PM41 °FQuite cool.5 mph51%29.96 "HgN/A
12:00 PM39 °FChilly.2 mph69%29.96 "HgN/A
11:00 AM41 °FQuite cool.2 mph57%29.93 "HgN/A
10:00 AM41 °FQuite cool.2 mph63%29.93 "HgN/A
9:00 AM40 °FChilly.2 mph73%29.89 "HgN/A
8:00 AM34 °FChilly.1 mph88%29.86 "HgN/A
7:00 AM35 °FChilly.1 mph80%29.83 "HgN/A
6:00 AM34 °FChilly.2 mph84%29.80 "HgN/A
5:00 AM35 °FChilly.1 mph80%29.76 "HgN/A
4:00 AM35 °FChilly.1 mph77%29.72 "HgN/A
3:00 AM36 °FChilly.3 mph76%29.67 "HgN/A
2:00 AM36 °FChilly.1 mph72%29.64 "HgN/A
Weather by CustomWeather, © 2014

See weather overview